[[{"header":{"parameterUnit":"m.s-1","parameterCategory":1,"la1":30.2991,"la2":30.254,"lo1":-89.0895,"lo2":-89.0444,"dy":0.0017,"dx":0.0017,"nx":28,"ny":28,"refTime":"2024-07-01T03:00:00:Z","depth":0,"parameterNumber":2,"parameterNumberName":"U-component_of_WINDS"},"data":[0,0,0,0,0,0,0,0,0,0,0,0,0,0,0,0,0,0,0,0,0,0,0,0,0,0,0,0,0,0,0,0,0,0,0,0,0,0,0,0,0,0,0,0,0,0,0,0,0,0,0,0,0,0,0,0,0,0,2.2043,2.2045,0,2.2261,2.2263,2.2266,2.2315,2.2314,2.2312,2.2311,2.2536,2.2543,2.2551,0,0,0,0,0,0,0,0,0,0,0,0,0,2.1671,2.1678,2.2043,2.2045,2.2048,2.226,2.2263,2.2266,2.2316,2.2314,2.2312,2.231,2.2534,2.2542,2.2551,0,0,0,0,0,0,0,0,0,0,0,0,0,2.1855,2.168,2.2042,2.2098,2.2106,2.226,2.2263,2.2267,2.2316,2.2314,2.2312,2.2309,2.2531,2.2542,2.2553,2.2667,0,0,2.2587,2.2591,0,0,0,0,0,0,0,0,2.1845,2.1869,2.2087,2.2095,2.2103,2.2259,2.2215,2.2401,2.2317,2.2236,2.2311,2.2308,2.2446,2.2464,2.251,2.2678,2.2687,2.2588,2.2594,2.2599,2.2602,0,0,0,0,0,0,0,2.1832,2.186,2.2129,2.209,2.21,2.2113,2.2137,2.225,2.2351,2.2243,2.2247,2.2272,2.245,2.2499,2.2515,2.2691,2.2587,2.2597,2.2604,2.2608,2.2963,2.2966,0,0,0,0,0,0,2.1809,2.1849,2.2122,2.2136,2.1965,2.2122,2.2148,2.2211,2.235,2.2369,2.2274,2.2274,2.2481,2.2502,2.2523,2.2666,2.2599,2.2609,2.2616,2.296,2.2964,2.2967,0,0,0,0,0,0,2.1801,2.1833,2.2113,2.1993,2.203,2.2131,2.2201,2.2216,2.2266,2.2373,2.2392,2.2306,2.248,2.2508,2.2631,2.2675,2.2614,2.2625,2.2957,2.2961,2.2965,2.2952,0,0,0,0,0,0,2.179,2.183,2.1874,2.1994,2.2036,2.2216,2.2204,2.2222,2.2285,2.2286,2.2408,2.2426,2.248,2.2614,2.2642,2.2689,2.2633,2.2953,2.2959,2.2964,2.2949,2.2955,2.2961,0,0,0,0,0,2.1776,2.1862,2.1876,2.1908,2.2093,2.2219,2.2243,2.2303,2.2288,2.2333,2.2402,2.2422,2.2665,2.2626,2.2658,2.2709,2.2951,2.2957,2.2963,2.2947,2.2954,2.2961,0,0,0,0,0,0,2.1745,2.1879,2.1895,2.2022,2.2109,2.2227,2.2286,2.2309,2.2403,2.24,2.2472,2.2499,2.2617,2.2676,2.2629,2.2827,2.2808,2.2821,2.2784,2.2792,2.2798,2.2781,2.2642,0,0,0,0,0,2.1753,2.1843,2.1955,2.2056,2.2099,2.2185,2.2242,2.228,2.2373,2.241,2.2488,2.2578,2.2675,2.2737,2.2832,2.2958,2.2985,2.3009,2.3015,2.3019,2.3029,2.31,2.3112,2.2987,2.2987,2.2987,0,0,2.177,2.1854,2.1907,2.2052,2.2123,2.2215,2.2215,2.2313,2.2382,2.2425,2.2546,2.2606,2.2711,2.2836,2.2895,2.2888,2.307,2.3027,2.3029,2.3038,2.3107,2.3119,2.313,2.2991,2.299,2.299,0,0,2.1847,2.192,2.2012,2.2084,2.2192,2.2249,2.227,2.2386,2.2427,2.2549,2.2583,2.2667,2.2832,2.2905,2.2964,2.3069,2.3091,2.3098,2.3128,2.3197,2.3206,2.3215,2.3253,2.3265,2.3108,2.3108,2.3108,0,2.1855,2.1995,2.2057,2.2153,2.2215,2.2258,2.2352,2.2419,2.2553,2.2595,2.2586,2.2794,2.2867,2.301,2.3035,2.3082,2.3109,2.3085,2.32,2.321,2.3219,2.3255,2.3269,2.3108,2.3108,2.3108,2.3108,0,2.1998,2.2094,2.2156,2.2283,2.2353,2.2447,2.2524,2.2588,2.262,2.2678,2.2802,2.2892,2.3005,2.3042,2.3076,2.319,2.3182,2.3185,2.3168,2.323,2.3265,2.3279,2.3109,2.3109,2.3108,2.3108,0,0,2.2062,2.2222,2.2243,2.2301,2.2424,2.25,2.2596,2.2706,2.2759,2.285,2.2933,2.3072,2.3075,2.3142,2.3184,2.3244,2.3321,2.324,2.3244,2.3252,2.3452,2.3448,2.3463,2.3336,2.3339,2.3342,2.3443,0,2.2154,2.2327,2.2386,2.2529,2.2618,2.266,2.2745,2.2829,2.2885,2.297,2.3033,2.313,2.3128,2.3168,2.3229,2.3298,2.3362,2.3292,2.3414,2.3418,2.3386,2.3481,2.3478,2.3569,2.3457,2.3459,2.3461,0,2.2285,2.2377,2.2528,2.2639,2.2679,2.2753,2.2859,2.2939,2.3036,2.3073,2.3147,2.3185,2.3288,2.3264,2.3407,2.3358,2.3411,2.3453,2.3458,2.3471,2.3442,2.3497,2.3599,2.3613,2.3483,2.3482,2.348,0,2.2315,2.2477,2.2588,2.2637,2.2769,2.282,2.2878,2.2972,2.3035,2.3128,2.3169,2.3273,2.3329,2.3409,2.3474,2.3451,2.3611,2.3593,2.3645,2.3643,2.3676,2.3673,2.3788,2.3711,2.3711,2.3711,2.3711,0,2.2411,2.2502,2.2604,2.2672,2.2776,2.2843,2.2943,2.3003,2.3087,2.3168,2.3212,2.3287,2.3369,2.3455,2.3507,2.3617,2.3642,2.3675,2.3688,2.3671,2.3667,2.3707,2.3702,2.3715,2.3714,2.3713,2.3712,0,2.2463,2.2534,2.2658,2.2773,2.2804,2.2875,2.2974,2.3042,2.31,2.3203,2.3231,2.3322,2.3426,2.3499,2.3633,2.3668,2.3786,2.3799,2.3753,2.3759,2.3807,2.3801,2.3951,2.3974,2.3882,2.3883,2.3884,0,2.2519,2.259,2.2712,2.2769,2.2826,2.2918,2.2982,2.3051,2.3116,2.3231,2.3285,2.3392,2.3481,2.3645,2.3724,2.3827,2.3842,2.3887,2.3857,2.3838,2.3842,2.3836,2.3844,2.3891,2.3892,2.3893,2.3893,0,2.2611,2.2643,2.2733,2.2836,2.291,2.2994,2.3079,2.3124,2.3208,2.3278,2.3384,2.3453,2.3589,2.3695,2.3805,2.3865,2.3893,2.3902,2.3919,2.3903,2.3873,2.3889,2.3765,2.3898,2.3897,2.3897,2.3897,2.3897,2.2667,2.2732,2.2827,2.2926,2.2997,2.3075,2.3145,2.3211,2.3301,2.3417,2.3452,2.3562,2.3658,2.3808,2.387,2.3958,2.3955,2.398,2.3986,2.3991,2.399,2.3859,2.3978,2.3978,2.3978,2.3978,2.3978,0,2.2761,2.2825,2.2915,2.3031,2.3109,2.3128,2.3223,2.3287,2.3383,2.3469,2.3555,2.3677,2.378,2.3867,2.3973,2.4026,2.4042,2.4052,2.4048,2.4062,2.3987,2.3961,2.4037,2.4037,2.4037,2.4037,2.4037,2.4037,2.2819,2.293,2.2973,2.3119,2.3182,2.329,2.3342,2.3414,2.3483,2.3617,2.3702,2.3758,2.3845,2.3958,2.4052,2.4076,2.4112,2.4119,2.4145,2.4074,2.4067,2.406,2.4036,2.4127,2.4127,2.4213,2.4213,2.4214]},{"header":{"parameterUnit":"m.s-1","parameterCategory":1,"la1":30.2991,"la2":30.254,"lo1":-89.0895,"lo2":-89.0444,"dy":0.0017,"dx":0.0017,"nx":28,"ny":28,"refTime":"2024-07-01T03:00:00:Z","depth":0,"parameterNumber":3,"parameterNumberName":"V-component_of_WINDS"},"data":[0,0,0,0,0,0,0,0,0,0,0,0,0,0,0,0,0,0,0,0,0,0,0,0,0,0,0,0,0,0,0,0,0,0,0,0,0,0,0,0,0,0,0,0,0,0,0,0,0,0,0,0,0,0,0,0,0,0,2.8616,2.8616,0,2.8601,2.8601,2.86,2.8534,2.8533,2.8531,2.853,2.8515,2.8516,2.8517,0,0,0,0,0,0,0,0,0,0,0,0,0,2.8588,2.8589,2.8616,2.8616,2.8616,2.8601,2.8601,2.86,2.8534,2.8532,2.8531,2.8529,2.8515,2.8516,2.8517,0,0,0,0,0,0,0,0,0,0,0,0,0,2.859,2.8589,2.8616,2.8581,2.8577,2.8601,2.8601,2.86,2.8535,2.8532,2.853,2.8528,2.8514,2.8516,2.8517,2.8574,0,0,2.8522,2.8523,0,0,0,0,0,0,0,0,2.859,2.8591,2.8586,2.8583,2.858,2.8567,2.8585,2.8591,2.8535,2.8551,2.8529,2.8527,2.8534,2.8534,2.8536,2.8573,2.8573,2.8522,2.8523,2.8524,2.8525,0,0,0,0,0,0,0,2.859,2.8591,2.861,2.8586,2.8582,2.8566,2.8564,2.8586,2.8556,2.8549,2.8545,2.8544,2.8532,2.8535,2.8536,2.8572,2.8522,2.8524,2.8525,2.8525,2.8654,2.8656,0,0,0,0,0,0,2.8594,2.8591,2.861,2.8609,2.8579,2.8568,2.8566,2.8573,2.8555,2.8551,2.8546,2.8541,2.8533,2.8534,2.8535,2.8599,2.8524,2.8526,2.8527,2.8651,2.8654,2.8657,0,0,0,0,0,0,2.8594,2.8597,2.8611,2.8599,2.86,2.8571,2.858,2.8574,2.8577,2.8553,2.8547,2.8554,2.8532,2.8533,2.8564,2.8598,2.8526,2.8528,2.8649,2.8652,2.8656,2.8729,0,0,0,0,0,0,2.8593,2.8597,2.8618,2.86,2.86,2.8641,2.8583,2.8576,2.858,2.8573,2.8559,2.8555,2.853,2.8562,2.8566,2.8599,2.8529,2.8645,2.865,2.8655,2.8723,2.8734,2.8744,0,0,0,0,0,2.8593,2.8639,2.8619,2.8622,2.8626,2.8643,2.8643,2.8614,2.8583,2.8604,2.8588,2.8555,2.8594,2.8566,2.857,2.8603,2.8643,2.8649,2.8654,2.8718,2.8732,2.8744,0,0,0,0,0,0,2.8663,2.8636,2.8614,2.8656,2.8652,2.8632,2.8657,2.8629,2.8634,2.8628,2.8591,2.8588,2.8625,2.8617,2.8588,2.8657,2.8613,2.8619,2.866,2.8673,2.8683,2.8684,2.853,0,0,0,0,0,2.8683,2.8698,2.8675,2.8714,2.8713,2.8686,2.8692,2.8669,2.8664,2.8662,2.8649,2.8645,2.8656,2.8664,2.8673,2.8722,2.8717,2.8746,2.8757,2.8766,2.8772,2.8796,2.8809,2.8675,2.8675,2.8675,0,0,2.8725,2.8713,2.8725,2.8728,2.8722,2.8739,2.8685,2.8705,2.8718,2.8665,2.8694,2.8684,2.8678,2.8718,2.8735,2.8713,2.8808,2.8773,2.878,2.8781,2.8803,2.8816,2.8827,2.8679,2.8678,2.8678,0,0,2.881,2.8803,2.8835,2.883,2.8821,2.8803,2.8811,2.8794,2.8785,2.8814,2.8775,2.8789,2.8809,2.8806,2.8807,2.8891,2.886,2.8895,2.8949,2.8973,2.8984,2.8993,2.9023,2.9034,2.8901,2.8901,2.8901,0,2.8864,2.8888,2.8855,2.8877,2.888,2.8833,2.8865,2.8862,2.8857,2.886,2.8835,2.8859,2.8851,2.889,2.891,2.8913,2.892,2.8896,2.8985,2.8994,2.9002,2.903,2.9041,2.8905,2.8904,2.8904,2.8904,0,2.8954,2.8971,2.8997,2.8993,2.8999,2.9026,2.8997,2.9007,2.8984,2.8968,2.8998,2.8987,2.8992,2.9,2.8978,2.9035,2.9022,2.8991,2.8946,2.9019,2.9045,2.9055,2.8911,2.8909,2.8908,2.8907,0,0,2.9083,2.906,2.907,2.9067,2.9055,2.9067,2.9093,2.9097,2.9106,2.9105,2.9125,2.9143,2.9114,2.9116,2.9093,2.9114,2.9181,2.9081,2.908,2.91,2.9244,2.9266,2.9279,2.9161,2.9163,2.9164,2.9244,0,2.9164,2.9205,2.9176,2.9222,2.9237,2.9192,2.9214,2.9209,2.9195,2.9206,2.919,2.9203,2.9165,2.9165,2.9185,2.9169,2.9209,2.9163,2.9179,2.918,2.9182,2.9292,2.9317,2.9392,2.9254,2.9255,2.9257,0,2.9264,2.9266,2.9314,2.9297,2.9302,2.9322,2.9324,2.9335,2.9329,2.9317,2.9318,2.9289,2.9313,2.9269,2.9301,2.927,2.9275,2.9269,2.9271,2.9271,2.9223,2.9295,2.9415,2.9427,2.9272,2.9271,2.927,0,2.9353,2.9368,2.9398,2.9397,2.9379,2.9394,2.9387,2.9378,2.9382,2.9384,2.9387,2.9392,2.9395,2.94,2.9373,2.9344,2.9409,2.9363,2.94,2.94,2.9415,2.9414,2.9537,2.9419,2.9419,2.9419,2.9418,0,2.9446,2.9477,2.9437,2.9456,2.9489,2.9455,2.9489,2.9477,2.9469,2.9485,2.9447,2.9463,2.9427,2.9439,2.9419,2.9448,2.945,2.9441,2.9435,2.9445,2.9446,2.9447,2.9441,2.9422,2.9421,2.942,2.942,0,2.9551,2.9526,2.9555,2.9535,2.9531,2.9556,2.9539,2.9556,2.9539,2.9559,2.9562,2.9536,2.9548,2.9522,2.9531,2.9517,2.9559,2.9545,2.9561,2.9557,2.9595,2.9592,2.9723,2.9739,2.9611,2.9612,2.9613,0,2.9612,2.9635,2.9617,2.9624,2.9619,2.9632,2.9636,2.9604,2.961,2.9604,2.9621,2.963,2.9635,2.9657,2.9639,2.9645,2.9631,2.9677,2.9632,2.964,2.9632,2.9631,2.9633,2.9686,2.9688,2.9689,2.969,0,2.9723,2.9709,2.9717,2.972,2.9726,2.9727,2.9726,2.9734,2.97,2.9709,2.972,2.9724,2.9733,2.9742,2.9745,2.9738,2.9709,2.9704,2.9713,2.9722,2.9731,2.9726,2.9586,2.9701,2.97,2.9699,2.9699,2.9698,2.9808,2.9825,2.9815,2.9825,2.982,2.982,2.9834,2.9818,2.9827,2.9831,2.9812,2.9828,2.982,2.982,2.9816,2.9829,2.9808,2.9821,2.9824,2.9828,2.9834,2.9729,2.9829,2.9829,2.9828,2.9828,2.9828,0,2.9917,2.9908,2.9917,2.9915,2.9923,2.9894,2.989,2.9899,2.9913,2.9908,2.9914,2.9927,2.9936,2.9919,2.9925,2.9938,2.9925,2.9941,2.9939,2.9938,2.9852,2.9844,2.9951,2.9951,2.9951,2.9951,2.9951,2.9951,2.9974,3.0002,2.9987,3.0013,3.0004,3.0018,3.0019,3.0018,3.0014,3.003,3.0037,3.0025,3.0015,3.002,3.0027,3.0022,3.0026,3.0047,3.0037,2.9957,2.9944,2.9933,2.9925,3.0048,3.0048,3.0122,3.0123,3.0123]}]]